Location: Palo Alto
(37.4420°N, 122.1420°W)
Time: 06:41:23
(UTC-07:00)

ARGOS - Visible Passes

Search period start: 01 September 2014 00:00
Search period end: 11 September 2014 00:00
Orbit: 821 x 835 km, 98.8° (Epoch: 31 August)

Date Brightness Start Highest point End Pass type
(mag) Time Alt. Az. Time Alt. Az. Time Alt. Az.
01 Sep 5.9 00:10:43 11° WNW 00:10:43 11° WNW 00:11:06 10° WNW visible
01 Sep 4.1 22:10:39 36° NE 22:10:39 36° NE 22:14:22 10° N visible
01 Sep 5.6 23:52:11 16° WNW 23:52:11 16° WNW 23:53:46 10° NW visible
02 Sep 4.4 21:52:07 27° NE 21:52:07 27° NE 21:55:38 10° N visible
02 Sep 5.3 23:33:39 22° NW 23:33:39 22° NW 23:35:56 10° NW visible
03 Sep 4.7 21:33:35 20° NE 21:33:35 20° NE 21:36:41 10° NNE visible
03 Sep 4.9 23:15:07 28° NW 23:15:07 28° NW 23:17:51 10° NNW visible
04 Sep 5.0 21:15:03 14° NE 21:15:03 14° NE 21:17:21 10° NNE visible
04 Sep 4.6 22:56:35 34° NNW 22:56:35 34° NNW 22:59:35 10° NNW visible
05 Sep 4.4 22:38:03 36° N 22:38:03 36° N 22:41:11 10° N visible
06 Sep 4.4 22:19:32 33° NNE 22:19:32 33° NNE 22:22:39 10° N visible
07 Sep 5.9 00:01:04 12° NW 00:01:04 12° NW 00:01:34 10° NW visible
07 Sep 4.5 22:01:00 27° NNE 22:01:00 27° NNE 22:03:59 10° N visible
07 Sep 5.7 23:42:32 16° NW 23:42:32 16° NW 23:43:54 10° NW visible
08 Sep 4.8 21:42:28 21° NE 21:42:28 21° NE 21:45:08 10° NNE visible
08 Sep 5.4 23:24:00 21° NW 23:24:00 21° NW 23:25:55 10° NNW visible
09 Sep 5.0 21:23:57 16° NE 21:23:57 16° NE 21:26:00 10° NNE visible
09 Sep 5.1 23:05:29 25° NNW 23:05:29 25° NNW 23:07:43 10° NNW visible
10 Sep 5.3 21:05:25 11° NE 21:05:25 11° NE 21:06:08 10° NE visible
10 Sep 4.9 22:46:57 28° NNW 22:46:57 28° NNW 22:49:23 10° NNW visible
